This demonstration page uses our WeatherBlox Daily Observations layout. Learn more.

Hourly Observations for October 25, 2017

Temp ( °F °C ) Dew Point ( °F °C ) Humidity (%) Winds ( mph kmh ) Pressure ( in mb ) Visibility ( mi km ) Precip ( " mm )
12:54 am 00:54 Clear 42 5.6 29 -1.7 60 60 undefined N/A 30.09 1019 10 16.09344 0 0
1:54 am 01:54 Clear 42 5.6 29 -1.7 60 60 undefined N/A 30.06 1018 10 16.09344 0 0
2:54 am 02:54 Clear 41 5 28 -2.2 60 60 undefined N/A 30.03 1017 10 16.09344 0 0
3:54 am 03:54 Cloudy 44 6.7 27 -2.8 51 51 undefined N/A 30 1016 10 16.09344 0 0
4:54 am 04:54 Mostly Cloudy 47 8.3 27 -2.8 46 46 undefined N/A 29.97 1015 10 16.09344 0 0
5:54 am 05:54 Clear 46 7.8 28 -2.2 50 50 undefined N/A 29.94 1014 10 16.09344 0 0
6:54 am 06:54 Clear 46 7.8 29 -1.7 51 51 W 9 15 29.91 1013 10 16.09344 0 0
7:54 am 07:54 Sunny 48 8.9 29 -1.7 48 48 NW 3 6 29.91 1013 10 16.09344 0 0
8:54 am 08:54 Sunny 50 10 32 0 50 50 NW 5 7 29.91 1013 10 16.09344 0 0
9:54 am 09:54 Sunny 56 13.3 34 1.1 44 44 WNW 8 13 29.91 1013 10 16.09344 0 0
10:54 am 10:54 Sunny 60 15.6 35 1.7 39 39 NNW 9 15 29.91 1013 10 16.09344 0 0
11:54 am 11:54 Sunny 65 18.3 35 1.7 33 33 NNW 9 15 29.88 1012 10 16.09344 0 0
12:54 pm 12:54 Sunny 69 20.6 35 1.7 29 29 NW 5 7 29.85 1011 10 16.09344 0 0
1:54 pm 13:54 Sunny 72 22.2 35 1.7 26 26 W 6 9 29.83 1010 10 16.09344 0 0
2:54 pm 14:54 Sunny 74 23.3 34 1.1 23 23 undefined N/A 29.8 1009 10 16.09344 0.001 0.001
3:54 pm 15:54 Sunny 75 23.9 35 1.7 23 23 SW 5 7 29.77 1008 10 16.09344 0 0
4:54 pm 16:54 Sunny 74 23.3 37 2.8 26 26 undefined N/A 29.74 1007 10 16.09344 0 0
5:54 pm 17:54 Sunny 67 19.4 42 5.6 41 41 S 6 9 29.71 1006 10 16.09344 0 0
6:54 pm 18:54 Clear 59 15 39 3.9 48 48 SSE 6 9 29.71 1006 9 14.484096 0 0
7:54 pm 19:54 Clear 57 13.9 38 3.3 49 49 SSE 6 9 29.71 1006 9 14.484096 0 0
8:54 pm 20:54 Clear 59 15 37 2.8 44 44 undefined N/A 29.68 1005 9 14.484096 0 0
9:54 pm 21:54 Clear 52 11.1 39 3.9 61 61 S 3 6 29.68 1005 9 14.484096 0 0
10:54 pm 22:54 Clear 51 10.6 38 3.3 61 61 undefined N/A 29.65 1004 9 14.484096 0 0
11:54 pm 23:54 Clear 51 10.6 38 3.3 61 61 undefined N/A 29.62 1003 10 16.09344 0 0

Powered by AerisWeather